Time,TemperatureF,DewpointF,PressureIn,WindDirection,WindDirectionDegrees,WindSpeedMPH,WindSpeedGustMPH,Humidity,HourlyPrecipIn,Conditions,Clouds,dailyrainin,SoftwareType,DateUTC
2013-03-31 00:00:00,45.9,32.8,30.05,ESE,120,6.0,8.0,60,0.00,,---,0.00,VWS V14.01,2013-03-31 04:00:00,
2013-03-31 00:05:00,46.1,33.0,30.05,SE,129,4.0,8.0,60,0.00,,---,0.00,VWS V14.01,2013-03-31 04:05:00,
2013-03-31 00:10:00,46.2,32.7,30.05,ESE,119,5.0,8.0,59,0.00,,---,0.00,VWS V14.01,2013-03-31 04:10:00,
2013-03-31 00:15:00,46.5,33.0,30.04,ESE,121,7.0,9.0,59,0.00,,---,0.00,VWS V14.01,2013-03-31 04:15:00,
2013-03-31 00:20:00,46.6,33.0,30.04,ESE,115,6.0,9.0,59,0.00,,---,0.00,VWS V14.01,2013-03-31 04:20:00,
2013-03-31 00:25:00,46.6,33.0,30.04,SE,133,7.0,9.0,59,0.00,,---,0.00,VWS V14.01,2013-03-31 04:25:00,
2013-03-31 00:30:00,46.6,33.0,30.04,ESE,108,6.0,9.0,59,0.00,,---,0.00,VWS V14.01,2013-03-31 04:30:00,
2013-03-31 00:35:00,46.7,33.2,30.03,East,96,5.0,9.0,59,0.00,,---,0.00,VWS V14.01,2013-03-31 04:35:00,
2013-03-31 00:40:00,46.5,33.0,30.03,ESE,114,8.0,9.0,59,0.00,,---,0.00,VWS V14.01,2013-03-31 04:40:00,
2013-03-31 00:45:00,46.5,33.0,30.03,ESE,115,4.0,9.0,59,0.00,,---,0.00,VWS V14.01,2013-03-31 04:45:00,
2013-03-31 00:50:00,46.5,33.0,30.02,ESE,121,5.0,9.0,59,0.00,,---,0.00,VWS V14.01,2013-03-31 04:50:00,
2013-03-31 00:55:00,46.4,32.9,30.02,ESE,115,7.0,9.0,59,0.00,,---,0.00,VWS V14.01,2013-03-31 04:55:00,
2013-03-31 01:00:00,46.4,32.9,30.02,ESE,115,5.0,6.0,59,0.00,,---,0.00,VWS V14.01,2013-03-31 05:00:00,
2013-03-31 01:05:00,46.4,33.3,30.02,ESE,105,5.0,8.0,60,0.00,,---,0.00,VWS V14.01,2013-03-31 05:05:00,
2013-03-31 01:10:00,46.4,33.3,30.01,East,81,3.0,9.0,60,0.00,,---,0.00,VWS V14.01,2013-03-31 05:10:00,
2013-03-31 01:15:00,46.5,33.0,30.01,ESE,119,3.0,9.0,59,0.00,,---,0.00,VWS V14.01,2013-03-31 05:15:00,
2013-03-31 01:20:00,46.5,33.0,30.01,SE,129,7.0,9.0,59,0.00,,---,0.00,VWS V14.01,2013-03-31 05:20:00,
2013-03-31 01:25:00,46.4,33.3,30.01,ESE,105,5.0,9.0,60,0.00,,---,0.00,VWS V14.01,2013-03-31 05:25:00,
2013-03-31 01:30:00,46.3,33.2,30.00,East,79,3.0,5.0,60,0.00,,---,0.00,VWS V14.01,2013-03-31 05:30:00,
2013-03-31 01:35:00,46.1,33.4,30.00,ESE,120,2.0,6.0,61,0.00,,---,0.00,VWS V14.01,2013-03-31 05:35:00,
2013-03-31 01:40:00,46.1,33.4,30.00,ESE,122,4.0,8.0,61,0.00,,---,0.00,VWS V14.01,2013-03-31 05:40:00,
2013-03-31 01:45:00,46.1,33.4,30.00,SE,127,9.0,10.0,61,0.00,,---,0.00,VWS V14.01,2013-03-31 05:45:00,
2013-03-31 01:50:00,46.3,33.2,29.99,ESE,113,7.0,10.0,60,0.00,,---,0.00,VWS V14.01,2013-03-31 05:50:00,
2013-03-31 01:55:00,46.4,33.7,29.99,SE,126,7.0,11.0,61,0.00,,---,0.00,VWS V14.01,2013-03-31 05:55:00,
2013-03-31 02:00:00,46.5,33.4,29.99,ESE,121,6.0,6.0,60,0.00,,---,0.00,VWS V14.01,2013-03-31 06:00:00,
2013-03-31 02:05:00,46.4,33.3,29.99,ESE,122,3.0,7.0,60,0.00,,---,0.00,VWS V14.01,2013-03-31 06:05:00,
2013-03-31 02:10:00,46.3,33.6,29.99,ESE,103,4.0,7.0,61,0.00,,---,0.00,VWS V14.01,2013-03-31 06:10:00,
2013-03-31 02:15:00,46.4,33.7,29.98,East,88,4.0,8.0,61,0.00,,---,0.00,VWS V14.01,2013-03-31 06:15:00,
2013-03-31 02:20:00,46.4,33.7,29.98,East,101,5.0,9.0,61,0.00,,---,0.00,VWS V14.01,2013-03-31 06:20:00,
2013-03-31 02:25:00,46.5,34.2,29.98,SE,131,5.0,10.0,62,0.00,,---,0.00,VWS V14.01,2013-03-31 06:25:00,
2013-03-31 02:30:00,46.4,34.1,29.98,ESE,117,3.0,6.0,62,0.00,,---,0.00,VWS V14.01,2013-03-31 06:30:00,
2013-03-31 02:36:00,46.5,34.6,29.97,SE,127,6.0,9.0,63,0.00,,---,0.00,VWS V14.01,2013-03-31 06:36:00,
2013-03-31 02:41:00,46.5,34.6,29.98,SSE,156,2.0,9.0,63,0.00,,---,0.00,VWS V14.01,2013-03-31 06:41:00,
2013-03-31 02:46:00,46.5,34.6,29.97,ESE,120,3.0,9.0,63,0.00,,---,0.00,VWS V14.01,2013-03-31 06:46:00,
2013-03-31 02:51:00,46.4,34.5,29.97,ESE,118,4.0,9.0,63,0.00,,---,0.00,VWS V14.01,2013-03-31 06:51:00,
2013-03-31 02:56:00,46.4,34.9,29.96,ESE,121,5.0,9.0,64,0.00,,---,0.00,VWS V14.01,2013-03-31 06:56:00,
2013-03-31 03:01:00,46.5,35.0,29.97,SE,131,4.0,6.0,64,0.00,,---,0.00,VWS V14.01,2013-03-31 07:01:00,
2013-03-31 03:06:00,46.5,35.0,29.97,SE,129,5.0,8.0,64,0.00,,---,0.00,VWS V14.01,2013-03-31 07:06:00,
2013-03-31 03:11:00,46.4,34.9,29.96,SE,135,3.0,8.0,64,0.00,,---,0.00,VWS V14.01,2013-03-31 07:11:00,
2013-03-31 03:16:00,46.4,35.3,29.96,SE,132,2.0,8.0,65,0.00,,---,0.00,VWS V14.01,2013-03-31 07:16:00,
2013-03-31 03:21:00,46.3,35.2,29.96,SE,129,2.0,8.0,65,0.00,,---,0.00,VWS V14.01,2013-03-31 07:21:00,
2013-03-31 03:27:00,46.3,35.6,29.95,SE,146,4.0,8.0,66,0.00,,---,0.00,VWS V14.01,2013-03-31 07:27:00,
2013-03-31 03:32:00,46.4,35.7,29.95,SE,145,1.0,10.0,66,0.00,,---,0.00,VWS V14.01,2013-03-31 07:32:00,
2013-03-31 03:37:00,46.5,35.4,29.95,SSE,148,2.0,10.0,65,0.00,,---,0.00,VWS V14.01,2013-03-31 07:37:00,
2013-03-31 03:42:00,46.4,35.7,29.95,SE,134,4.0,10.0,66,0.00,,---,0.00,VWS V14.01,2013-03-31 07:42:00,
2013-03-31 03:47:00,46.5,35.8,29.95,SSE,155,1.0,10.0,66,0.00,,---,0.00,VWS V14.01,2013-03-31 07:47:00,
2013-03-31 03:52:00,46.4,36.4,29.94,SSE,160,3.0,10.0,68,0.00,,---,0.00,VWS V14.01,2013-03-31 07:52:00,
2013-03-31 03:57:00,46.1,36.9,29.94,ESE,117,3.0,10.0,70,0.00,,---,0.00,VWS V14.01,2013-03-31 07:57:00,
2013-03-31 04:02:00,45.8,37.0,29.94,SE,132,3.0,7.0,71,0.00,,---,0.00,VWS V14.01,2013-03-31 08:02:00,
2013-03-31 04:07:00,45.9,36.7,29.94,SE,131,5.0,8.0,70,0.00,,---,0.00,VWS V14.01,2013-03-31 08:07:00,
2013-03-31 04:12:00,46.1,36.5,29.94,East,87,4.0,8.0,69,0.00,,---,0.00,VWS V14.01,2013-03-31 08:12:00,
2013-03-31 08:00:00,41.7,40.9,29.85,ESE,112,5.0,9.0,97,0.01,,---,0.15,VWS V14.01,2013-03-31 12:00:00,
2013-03-31 08:44:00,42.3,41.5,29.84,SE,132,5.0,5.0,97,0.00,,---,0.15,VWS V14.01,2013-03-31 12:44:00,
2013-03-31 08:49:00,42.5,41.7,29.84,SSE,148,6.0,8.0,97,0.00,,---,0.15,VWS V14.01,2013-03-31 12:49:00,
2013-03-31 08:54:00,42.6,41.8,29.84,ESE,123,7.0,9.0,97,0.00,,---,0.15,VWS V14.01,2013-03-31 12:54:00,
2013-03-31 08:59:00,42.8,42.0,29.84,SE,127,8.0,10.0,97,0.00,,---,0.15,VWS V14.01,2013-03-31 12:59:00,
2013-03-31 09:04:00,42.9,42.1,29.84,SSE,151,4.0,7.0,97,0.00,,---,0.15,VWS V14.01,2013-03-31 13:04:00,
2013-03-31 09:09:00,42.9,42.1,29.84,SE,140,4.0,7.0,97,0.00,,---,0.15,VWS V14.01,2013-03-31 13:09:00,
2013-03-31 09:14:00,43.1,42.3,29.83,SSE,148,3.0,8.0,97,0.00,,---,0.15,VWS V14.01,2013-03-31 13:14:00,
2013-03-31 09:19:00,43.1,42.3,29.83,SE,135,5.0,9.0,97,0.00,,---,0.15,VWS V14.01,2013-03-31 13:19:00,
2013-03-31 09:24:00,43.3,42.5,29.83,SE,135,3.0,9.0,97,0.00,,---,0.15,VWS V14.01,2013-03-31 13:24:00,
2013-03-31 09:29:00,43.4,42.6,29.83,SE,131,5.0,9.0,97,0.00,,---,0.15,VWS V14.01,2013-03-31 13:29:00,
2013-03-31 09:34:00,43.5,42.7,29.83,SE,146,2.0,6.0,97,0.00,,---,0.15,VWS V14.01,2013-03-31 13:34:00,
2013-03-31 09:39:00,43.5,42.7,29.83,SE,131,3.0,6.0,97,0.00,,---,0.15,VWS V14.01,2013-03-31 13:39:00,
2013-03-31 09:44:00,43.6,42.8,29.83,ESE,120,6.0,8.0,97,0.00,,---,0.15,VWS V14.01,2013-03-31 13:44:00,
2013-03-31 09:49:00,43.7,42.9,29.82,ESE,110,6.0,9.0,97,0.00,,---,0.15,VWS V14.01,2013-03-31 13:49:00,
2013-03-31 09:54:00,43.9,43.1,29.82,SSE,158,2.0,9.0,97,0.01,,---,0.16,VWS V14.01,2013-03-31 13:54:00,
2013-03-31 09:59:00,44.0,43.2,29.82,SE,134,5.0,9.0,97,0.01,,---,0.16,VWS V14.01,2013-03-31 13:59:00,
2013-03-31 10:04:00,44.3,43.5,29.82,SE,129,9.0,9.0,97,0.02,,---,0.17,VWS V14.01,2013-03-31 14:04:00,
2013-03-31 10:09:00,44.4,43.6,29.82,ESE,105,9.0,11.0,97,0.02,,---,0.17,VWS V14.01,2013-03-31 14:09:00,
2013-03-31 10:14:00,44.8,44.3,29.82,South,170,2.0,11.0,98,0.02,,---,0.17,VWS V14.01,2013-03-31 14:14:00,
2013-03-31 10:19:00,44.9,44.1,29.82,SSE,162,3.0,11.0,97,0.02,,---,0.17,VWS V14.01,2013-03-31 14:19:00,
2013-03-31 10:24:00,45.0,44.2,29.82,SSE,155,3.0,11.0,97,0.03,,---,0.18,VWS V14.01,2013-03-31 14:24:00,
2013-03-31 10:29:00,45.1,44.3,29.82,SSE,158,4.0,11.0,97,0.04,,---,0.19,VWS V14.01,2013-03-31 14:29:00,
2013-03-31 10:35:00,45.0,44.2,29.81,ESE,113,4.0,5.0,97,0.04,,---,0.19,VWS V14.01,2013-03-31 14:35:00,
2013-03-31 10:40:00,45.0,44.2,29.81,SW,222,1.0,6.0,97,0.04,,---,0.19,VWS V14.01,2013-03-31 14:40:00,
2013-03-31 10:45:00,45.1,44.3,29.81,SE,134,3.0,6.0,97,0.04,,---,0.19,VWS V14.01,2013-03-31 14:45:00,
2013-03-31 10:50:00,45.3,44.5,29.81,SE,135,3.0,6.0,97,0.04,,---,0.19,VWS V14.01,2013-03-31 14:50:00,
2013-03-31 10:55:00,45.3,44.5,29.81,South,191,3.0,7.0,97,0.04,,---,0.19,VWS V14.01,2013-03-31 14:55:00,
2013-03-31 11:00:00,45.5,44.7,29.81,SSE,158,2.0,7.0,97,0.05,,---,0.20,VWS V14.01,2013-03-31 15:00:00,
2013-03-31 11:05:00,45.6,44.8,29.81,SSE,158,0.0,7.0,97,0.04,,---,0.20,VWS V14.01,2013-03-31 15:05:00,
2013-03-31 11:10:00,45.7,44.9,29.81,SSE,150,2.0,8.0,97,0.04,,---,0.20,VWS V14.01,2013-03-31 15:10:00,
2013-03-31 11:15:00,46.1,45.6,29.81,SSW,207,4.0,9.0,98,0.04,,---,0.20,VWS V14.01,2013-03-31 15:15:00,
2013-03-31 11:20:00,46.5,46.0,29.81,SSW,203,2.0,9.0,98,0.04,,---,0.20,VWS V14.01,2013-03-31 15:20:00,
2013-03-31 11:25:00,46.7,45.9,29.81,SW,224,3.0,11.0,97,0.05,,---,0.21,VWS V14.01,2013-03-31 15:25:00,
2013-03-31 11:30:00,46.9,46.1,29.81,South,170,9.0,13.0,97,0.02,,---,0.21,VWS V14.01,2013-03-31 15:30:00,
2013-03-31 11:35:00,47.1,46.0,29.81,SW,225,11.0,15.0,96,0.02,,---,0.21,VWS V14.01,2013-03-31 15:35:00,
2013-03-31 11:40:00,47.2,46.1,29.80,SSE,155,3.0,15.0,96,0.02,,---,0.21,VWS V14.01,2013-03-31 15:40:00,
2013-03-31 11:45:00,47.3,46.2,29.80,SW,217,9.0,15.0,96,0.02,,---,0.21,VWS V14.01,2013-03-31 15:45:00,
2013-03-31 11:50:00,47.4,46.3,29.80,SW,222,8.0,15.0,96,0.02,,---,0.21,VWS V14.01,2013-03-31 15:50:00,
2013-03-31 11:55:00,47.4,46.3,29.80,SSW,200,5.0,17.0,96,0.02,,---,0.21,VWS V14.01,2013-03-31 15:55:00,
2013-03-31 12:00:00,47.4,46.3,29.80,SSW,197,8.0,9.0,96,0.01,,---,0.21,VWS V14.01,2013-03-31 16:00:00,
2013-03-31 12:05:00,47.2,46.1,29.80,SW,219,10.0,21.0,96,0.01,,---,0.21,VWS V14.01,2013-03-31 16:05:00,
2013-03-31 12:10:00,47.2,46.1,29.80,South,181,5.0,21.0,96,0.01,,---,0.21,VWS V14.01,2013-03-31 16:10:00,
2013-03-31 12:15:00,47.3,46.2,29.80,South,170,10.0,21.0,96,0.01,,---,0.21,VWS V14.01,2013-03-31 16:15:00,
2013-03-31 12:20:00,47.4,46.0,29.80,South,189,8.0,21.0,95,0.01,,---,0.21,VWS V14.01,2013-03-31 16:20:00,
2013-03-31 12:25:00,47.4,46.0,29.80,South,176,8.0,21.0,95,0.01,,---,0.21,VWS V14.01,2013-03-31 16:25:00,
2013-03-31 12:30:00,47.5,46.1,29.80,SW,226,10.0,13.0,95,0.00,,---,0.21,VWS V14.01,2013-03-31 16:30:00,
2013-03-31 12:35:00,47.5,46.1,29.80,SW,236,7.0,18.0,95,0.00,,---,0.21,VWS V14.01,2013-03-31 16:35:00,
2013-03-31 12:40:00,47.5,45.9,29.80,SSW,212,5.0,21.0,94,0.00,,---,0.21,VWS V14.01,2013-03-31 16:40:00,
2013-03-31 12:45:00,47.5,45.9,29.79,SSW,198,4.0,21.0,94,0.00,,---,0.21,VWS V14.01,2013-03-31 16:45:00,
2013-03-31 12:50:00,47.6,46.0,29.79,SW,225,8.0,21.0,94,0.00,,---,0.21,VWS V14.01,2013-03-31 16:50:00,
2013-03-31 12:55:00,47.7,46.1,29.79,SW,222,5.0,21.0,94,0.00,,---,0.21,VWS V14.01,2013-03-31 16:55:00,
2013-03-31 13:00:00,47.8,46.2,29.78,West,260,5.0,10.0,94,0.00,,---,0.21,VWS V14.01,2013-03-31 17:00:00,
2013-03-31 13:05:00,47.8,46.2,29.78,SSW,212,9.0,16.0,94,0.00,,---,0.21,VWS V14.01,2013-03-31 17:05:00,
2013-03-31 13:10:00,48.0,46.4,29.78,SW,219,10.0,16.0,94,0.00,,---,0.21,VWS V14.01,2013-03-31 17:10:00,
2013-03-31 13:15:00,48.1,46.2,29.78,WSW,253,3.0,16.0,93,0.00,,---,0.21,VWS V14.01,2013-03-31 17:15:00,
2013-03-31 13:20:00,48.0,46.1,29.78,WSW,238,12.0,18.0,93,0.00,,---,0.21,VWS V14.01,2013-03-31 17:20:00,
2013-03-31 13:25:00,47.9,46.3,29.78,SW,231,10.0,18.0,94,0.00,,---,0.21,VWS V14.01,2013-03-31 17:25:00,
2013-03-31 13:30:00,48.0,46.4,29.78,South,170,4.0,10.0,94,0.00,,---,0.21,VWS V14.01,2013-03-31 17:30:00,
2013-03-31 13:35:00,48.0,46.4,29.78,SW,221,7.0,17.0,94,0.00,,---,0.21,VWS V14.01,2013-03-31 17:35:00,
2013-03-31 13:40:00,48.1,46.2,29.78,West,267,7.0,17.0,93,0.00,,---,0.21,VWS V14.01,2013-03-31 17:40:00,
2013-03-31 13:45:00,48.2,46.6,29.78,SW,219,7.0,17.0,94,0.00,,---,0.21,VWS V14.01,2013-03-31 17:45:00,
2013-03-31 13:50:00,48.2,46.3,29.78,SW,228,7.0,19.0,93,0.00,,---,0.21,VWS V14.01,2013-03-31 17:50:00,
2013-03-31 13:55:00,48.2,46.6,29.78,SSW,207,9.0,21.0,94,0.00,,---,0.21,VWS V14.01,2013-03-31 17:55:00,
2013-03-31 14:00:00,48.4,46.5,29.77,SW,228,9.0,15.0,93,0.00,,---,0.21,VWS V14.01,2013-03-31 18:00:00,
2013-03-31 14:05:00,48.6,46.7,29.78,South,184,13.0,15.0,93,0.00,,---,0.21,VWS V14.01,2013-03-31 18:05:00,
2013-03-31 14:11:00,48.7,46.5,29.78,West,270,9.0,18.0,92,0.00,,---,0.21,VWS V14.01,2013-03-31 18:11:00,
2013-03-31 14:16:00,48.6,46.4,29.78,SW,214,14.0,19.0,92,0.00,,---,0.21,VWS V14.01,2013-03-31 18:16:00,
2013-03-31 14:21:00,48.4,46.2,29.78,SW,228,7.0,19.0,92,0.00,,---,0.21,VWS V14.01,2013-03-31 18:21:00,
2013-03-31 14:26:00,48.1,46.2,29.78,WSW,255,3.0,19.0,93,0.00,,---,0.21,VWS V14.01,2013-03-31 18:26:00,
2013-03-31 14:31:00,47.9,46.3,29.79,WSW,243,9.0,12.0,94,0.00,,---,0.21,VWS V14.01,2013-03-31 18:31:00,
2013-03-31 14:37:00,47.7,46.3,29.79,SW,221,7.0,16.0,95,0.00,,---,0.21,VWS V14.01,2013-03-31 18:37:00,
2013-03-31 14:42:00,47.7,46.3,29.78,South,186,4.0,16.0,95,0.00,,---,0.21,VWS V14.01,2013-03-31 18:42:00,
2013-03-31 14:47:00,48.0,46.6,29.79,SW,219,6.0,16.0,95,0.00,,---,0.21,VWS V14.01,2013-03-31 18:47:00,
2013-03-31 14:52:00,48.3,46.7,29.78,SW,222,11.0,16.0,94,0.00,,---,0.21,VWS V14.01,2013-03-31 18:52:00,
2013-03-31 14:57:00,48.5,46.6,29.79,WSW,238,8.0,16.0,93,0.00,,---,0.21,VWS V14.01,2013-03-31 18:57:00,
2013-03-31 15:02:00,48.6,46.4,29.79,West,276,9.0,18.0,92,0.00,,---,0.21,VWS V14.01,2013-03-31 19:02:00,
2013-03-31 15:07:00,48.7,46.2,29.79,WNW,302,3.0,20.0,91,0.00,,---,0.21,VWS V14.01,2013-03-31 19:07:00,
2013-03-31 15:12:00,48.7,46.2,29.79,SSW,198,9.0,20.0,91,0.00,,---,0.21,VWS V14.01,2013-03-31 19:12:00,
2013-03-31 15:17:00,48.7,46.5,29.79,WSW,248,1.0,20.0,92,0.00,,---,0.21,VWS V14.01,2013-03-31 19:17:00,
2013-03-31 15:22:00,48.8,46.6,29.80,SSW,202,4.0,20.0,92,0.00,,---,0.21,VWS V14.01,2013-03-31 19:22:00,
2013-03-31 15:28:00,48.9,46.1,29.79,SSW,205,11.0,20.0,90,0.00,,---,0.21,VWS V14.01,2013-03-31 19:28:00,
2013-03-31 15:33:00,49.0,46.5,29.79,SSW,207,7.0,13.0,91,0.00,,---,0.21,VWS V14.01,2013-03-31 19:33:00,
2013-03-31 15:38:00,49.2,46.4,29.79,SSW,195,7.0,15.0,90,0.00,,---,0.21,VWS V14.01,2013-03-31 19:38:00,
2013-03-31 15:43:00,49.1,46.3,29.80,SW,224,7.0,18.0,90,0.01,,---,0.22,VWS V14.01,2013-03-31 19:43:00,
2013-03-31 15:48:00,49.0,46.2,29.80,SW,236,5.0,18.0,90,0.01,,---,0.22,VWS V14.01,2013-03-31 19:48:00,
2013-03-31 15:53:00,48.9,46.1,29.80,SSW,205,3.0,18.0,90,0.01,,---,0.22,VWS V14.01,2013-03-31 19:53:00,
2013-03-31 15:58:00,48.8,46.0,29.80,WSW,245,11.0,21.0,90,0.01,,---,0.22,VWS V14.01,2013-03-31 19:58:00,
2013-03-31 16:03:00,48.9,46.1,29.80,West,281,8.0,15.0,90,0.01,,---,0.22,VWS V14.01,2013-03-31 20:03:00,
2013-03-31 16:08:00,49.1,46.0,29.80,WSW,250,12.0,16.0,89,0.01,,---,0.22,VWS V14.01,2013-03-31 20:08:00,
2013-03-31 16:13:00,49.0,45.9,29.80,SW,226,7.0,16.0,89,0.01,,---,0.22,VWS V14.01,2013-03-31 20:13:00,
2013-03-31 16:18:00,48.8,45.4,29.81,SW,224,6.0,16.0,88,0.01,,---,0.22,VWS V14.01,2013-03-31 20:18:00,
2013-03-31 16:23:00,48.7,45.6,29.80,SW,225,11.0,17.0,89,0.01,,---,0.22,VWS V14.01,2013-03-31 20:23:00,
2013-03-31 16:28:00,48.7,45.6,29.80,SW,229,5.0,17.0,89,0.01,,---,0.22,VWS V14.01,2013-03-31 20:28:00,
2013-03-31 16:33:00,48.7,45.6,29.81,SW,219,9.0,10.0,89,0.01,,---,0.22,VWS V14.01,2013-03-31 20:33:00,
2013-03-31 16:38:00,48.5,45.7,29.81,SSW,203,2.0,11.0,90,0.02,,---,0.23,VWS V14.01,2013-03-31 20:38:00,
2013-03-31 16:43:00,48.0,45.5,29.80,SW,224,11.0,11.0,91,0.04,,---,0.25,VWS V14.01,2013-03-31 20:43:00,
2013-03-31 16:48:00,47.7,45.8,29.80,WSW,242,4.0,11.0,93,0.05,,---,0.26,VWS V14.01,2013-03-31 20:48:00,
2013-03-31 16:53:00,47.6,45.7,29.80,SSW,212,5.0,13.0,93,0.05,,---,0.26,VWS V14.01,2013-03-31 20:53:00,
2013-03-31 16:58:00,47.6,45.7,29.80,SW,222,5.0,13.0,93,0.05,,---,0.26,VWS V14.01,2013-03-31 20:58:00,
2013-03-31 17:03:00,47.5,45.6,29.80,WNW,291,4.0,12.0,93,0.04,,---,0.26,VWS V14.01,2013-03-31 21:03:00,
2013-03-31 17:08:00,47.6,45.7,29.80,SW,236,4.0,13.0,93,0.04,,---,0.26,VWS V14.01,2013-03-31 21:08:00,
2013-03-31 17:13:00,47.7,45.8,29.79,SW,233,4.0,17.0,93,0.04,,---,0.26,VWS V14.01,2013-03-31 21:13:00,
2013-03-31 17:18:00,47.7,45.5,29.80,SW,228,7.0,20.0,92,0.04,,---,0.26,VWS V14.01,2013-03-31 21:18:00,
2013-03-31 17:24:00,47.7,45.5,29.80,SSW,210,7.0,20.0,92,0.04,,---,0.26,VWS V14.01,2013-03-31 21:24:00,
2013-03-31 17:29:00,47.6,45.1,29.79,WSW,239,4.0,20.0,91,0.04,,---,0.26,VWS V14.01,2013-03-31 21:29:00,
2013-03-31 17:34:00,47.7,45.2,29.79,SW,232,5.0,13.0,91,0.04,,---,0.26,VWS V14.01,2013-03-31 21:34:00,
2013-03-31 17:38:00,47.8,45.3,29.79,SSW,207,4.0,15.0,91,0.04,,---,0.26,VWS V14.01,2013-03-31 21:38:00,
2013-03-31 17:43:00,47.8,45.3,29.79,SSW,211,6.0,15.0,91,0.04,,---,0.26,VWS V14.01,2013-03-31 21:43:00,
2013-03-31 17:49:00,47.9,45.4,29.79,WSW,238,7.0,15.0,91,0.04,,---,0.26,VWS V14.01,2013-03-31 21:49:00,
2013-03-31 17:54:00,47.8,45.0,29.79,SSW,192,2.0,15.0,90,0.04,,---,0.26,VWS V14.01,2013-03-31 21:54:00,
2013-03-31 17:59:00,48.0,45.2,29.79,SSW,201,3.0,15.0,90,0.04,,---,0.26,VWS V14.01,2013-03-31 21:59:00,
2013-03-31 18:04:00,48.4,45.6,29.78,SSW,210,3.0,8.0,90,0.00,,---,0.26,VWS V14.01,2013-03-31 22:04:00,
2013-03-31 18:09:00,48.5,45.7,29.78,WNW,302,3.0,8.0,90,0.00,,---,0.26,VWS V14.01,2013-03-31 22:09:00,
2013-03-31 18:14:00,48.6,45.5,29.78,SSW,207,4.0,10.0,89,0.00,,---,0.26,VWS V14.01,2013-03-31 22:14:00,
2013-03-31 18:19:00,48.4,45.0,29.79,SSW,209,4.0,10.0,88,0.00,,---,0.26,VWS V14.01,2013-03-31 22:19:00,
2013-03-31 18:24:00,48.2,45.1,29.79,SW,229,4.0,10.0,89,0.00,,---,0.26,VWS V14.01,2013-03-31 22:24:00,
2013-03-31 18:29:00,48.1,44.7,29.79,SSW,203,6.0,12.0,88,0.00,,---,0.26,VWS V14.01,2013-03-31 22:29:00,
2013-03-31 18:34:00,48.1,44.7,29.79,West,266,8.0,13.0,88,0.00,,---,0.26,VWS V14.01,2013-03-31 22:34:00,
2013-03-31 18:39:00,48.1,44.4,29.79,SW,226,9.0,15.0,87,0.00,,---,0.26,VWS V14.01,2013-03-31 22:39:00,
2013-03-31 18:44:00,48.3,44.6,29.79,SW,232,6.0,15.0,87,0.00,,---,0.26,VWS V14.01,2013-03-31 22:44:00,
2013-03-31 18:49:00,48.3,44.3,29.79,SW,228,6.0,15.0,86,0.00,,---,0.26,VWS V14.01,2013-03-31 22:49:00,
2013-03-31 18:54:00,48.2,44.2,29.78,WSW,240,4.0,15.0,86,0.00,,---,0.26,VWS V14.01,2013-03-31 22:54:00,
2013-03-31 18:59:00,48.1,44.1,29.78,SW,230,6.0,15.0,86,0.00,,---,0.26,VWS V14.01,2013-03-31 22:59:00,
2013-03-31 19:04:00,47.8,43.8,29.79,WSW,250,7.0,11.0,86,0.00,,---,0.26,VWS V14.01,2013-03-31 23:04:00,
2013-03-31 19:09:00,47.5,43.8,29.80,WSW,240,8.0,11.0,87,0.00,,---,0.26,VWS V14.01,2013-03-31 23:09:00,
2013-03-31 19:14:00,47.2,43.5,29.80,WSW,243,4.0,16.0,87,0.00,,---,0.26,VWS V14.01,2013-03-31 23:14:00,
2013-03-31 19:19:00,47.0,43.6,29.80,SW,232,5.0,16.0,88,0.00,,---,0.26,VWS V14.01,2013-03-31 23:19:00,
2013-03-31 19:24:00,46.9,43.5,29.81,SW,224,7.0,16.0,88,0.00,,---,0.26,VWS V14.01,2013-03-31 23:24:00,
2013-03-31 19:29:00,46.7,43.6,29.80,SW,214,6.0,16.0,89,0.00,,---,0.26,VWS V14.01,2013-03-31 23:29:00,
2013-03-31 19:34:00,46.6,43.2,29.81,West,262,3.0,11.0,88,0.00,,---,0.26,VWS V14.01,2013-03-31 23:34:00,
2013-03-31 19:39:00,46.5,43.4,29.81,WSW,245,2.0,11.0,89,0.00,,---,0.26,VWS V14.01,2013-03-31 23:39:00,
2013-03-31 19:44:00,46.5,43.4,29.82,SSW,194,3.0,13.0,89,0.00,,---,0.26,VWS V14.01,2013-03-31 23:44:00,
2013-03-31 19:50:00,46.4,43.3,29.82,SSW,205,3.0,13.0,89,0.00,,---,0.26,VWS V14.01,2013-03-31 23:50:00,
2013-03-31 19:55:00,46.4,43.3,29.82,WSW,255,6.0,13.0,89,0.00,,---,0.26,VWS V14.01,2013-03-31 23:55:00,
2013-03-31 20:00:00,46.2,43.1,29.82,SSW,211,4.0,13.0,89,0.00,,---,0.26,VWS V14.01,2013-04-01 00:00:00,
2013-03-31 20:05:00,46.1,43.0,29.82,SW,214,8.0,8.0,89,0.00,,---,0.26,VWS V14.01,2013-04-01 00:05:00,
2013-03-31 20:10:00,46.1,43.0,29.82,SW,233,3.0,11.0,89,0.00,,---,0.26,VWS V14.01,2013-04-01 00:10:00,
2013-03-31 20:15:00,45.9,42.8,29.82,West,278,2.0,11.0,89,0.00,,---,0.26,VWS V14.01,2013-04-01 00:15:00,
2013-03-31 20:20:00,45.8,43.0,29.82,SW,215,2.0,11.0,90,0.00,,---,0.26,VWS V14.01,2013-04-01 00:20:00,
2013-03-31 20:25:00,45.6,42.8,29.82,WSW,242,1.0,11.0,90,0.00,,---,0.26,VWS V14.01,2013-04-01 00:25:00,
2013-03-31 20:30:00,45.4,42.6,29.82,West,276,2.0,6.0,90,0.00,,---,0.26,VWS V14.01,2013-04-01 00:30:00,
2013-03-31 20:35:00,45.4,42.6,29.82,SSW,205,2.0,7.0,90,0.00,,---,0.26,VWS V14.01,2013-04-01 00:35:00,
2013-03-31 20:40:00,45.3,42.5,29.82,SW,225,3.0,8.0,90,0.00,,---,0.26,VWS V14.01,2013-04-01 00:40:00,
2013-03-31 20:45:00,45.2,42.5,29.82,WNW,286,5.0,8.0,90,0.00,,---,0.26,VWS V14.01,2013-04-01 00:45:00,
2013-03-31 20:50:00,45.1,42.3,29.82,West,276,2.0,9.0,90,0.00,,---,0.26,VWS V14.01,2013-04-01 00:50:00,
2013-03-31 20:55:00,44.9,42.2,29.82,WSW,250,3.0,9.0,90,0.00,,---,0.26,VWS V14.01,2013-04-01 00:55:00,
2013-03-31 21:00:00,44.8,42.0,29.82,SW,225,1.0,1.0,90,0.00,,---,0.26,VWS V14.01,2013-04-01 01:00:00,
2013-03-31 21:05:00,44.6,42.1,29.82,WSW,243,2.0,6.0,91,0.00,,---,0.26,VWS V14.01,2013-04-01 01:05:00,
2013-03-31 21:10:00,44.4,41.9,29.82,SW,231,2.0,8.0,91,0.00,,---,0.26,VWS V14.01,2013-04-01 01:10:00,
2013-03-31 21:15:00,44.3,41.8,29.82,SW,214,1.0,8.0,91,0.00,,---,0.26,VWS V14.01,2013-04-01 01:15:00,
2013-03-31 21:20:00,44.1,41.7,29.82,SW,236,0.0,8.0,91,0.00,,---,0.26,VWS V14.01,2013-04-01 01:20:00,
2013-03-31 21:25:00,44.0,41.8,29.82,SW,232,5.0,8.0,92,0.00,,---,0.26,VWS V14.01,2013-04-01 01:25:00,
2013-03-31 21:30:00,43.9,41.5,29.83,WSW,240,1.0,1.0,91,0.00,,---,0.26,VWS V14.01,2013-04-01 01:30:00,
2013-03-31 21:35:00,43.7,41.5,29.83,South,191,2.0,6.0,92,0.00,,---,0.26,VWS V14.01,2013-04-01 01:35:00,
2013-03-31 21:40:00,43.7,41.5,29.83,SW,222,0.0,6.0,92,0.00,,---,0.26,VWS V14.01,2013-04-01 01:40:00,
2013-03-31 21:45:00,43.5,41.3,29.83,NW,314,0.0,6.0,92,0.00,,---,0.26,VWS V14.01,2013-04-01 01:45:00,
2013-03-31 21:50:00,43.3,41.4,29.83,SW,232,1.0,6.0,93,0.00,,---,0.26,VWS V14.01,2013-04-01 01:50:00,
2013-03-31 21:55:00,43.2,41.3,29.83,SW,224,1.0,6.0,93,0.00,,---,0.26,VWS V14.01,2013-04-01 01:55:00,
2013-03-31 22:00:00,43.2,41.3,29.84,SW,214,0.0,2.0,93,0.00,,---,0.26,VWS V14.01,2013-04-01 02:00:00,
2013-03-31 22:05:00,43.1,41.2,29.84,SW,224,1.0,5.0,93,0.00,,---,0.26,VWS V14.01,2013-04-01 02:05:00,
2013-03-31 22:10:00,43.0,41.4,29.84,WSW,253,0.0,5.0,94,0.00,,---,0.26,VWS V14.01,2013-04-01 02:10:00,
2013-03-31 22:15:00,42.9,41.3,29.84,WSW,250,0.0,5.0,94,0.00,,---,0.26,VWS V14.01,2013-04-01 02:15:00,
2013-03-31 22:20:00,42.9,41.3,29.84,WSW,249,4.0,5.0,94,0.00,,---,0.26,VWS V14.01,2013-04-01 02:20:00,
2013-03-31 22:25:00,43.1,41.5,29.84,WNW,295,2.0,8.0,94,0.00,,---,0.26,VWS V14.01,2013-04-01 02:25:00,
2013-03-31 22:30:00,43.4,41.8,29.84,North,356,3.0,4.0,94,0.00,,---,0.26,VWS V14.01,2013-04-01 02:30:00,
2013-03-31 22:35:00,43.5,41.9,29.84,WNW,295,4.0,11.0,94,0.00,,---,0.26,VWS V14.01,2013-04-01 02:35:00,
2013-03-31 22:41:00,43.6,42.0,29.84,SSW,212,4.0,11.0,94,0.00,,---,0.26,VWS V14.01,2013-04-01 02:41:00,
2013-03-31 22:46:00,43.5,41.6,29.84,WNW,284,2.0,11.0,93,0.00,,---,0.26,VWS V14.01,2013-04-01 02:46:00,
2013-03-31 22:51:00,43.5,41.6,29.84,WSW,240,1.0,11.0,93,0.00,,---,0.26,VWS V14.01,2013-04-01 02:51:00,
2013-03-31 22:56:00,43.4,41.5,29.84,SSW,197,0.0,11.0,93,0.00,,---,0.26,VWS V14.01,2013-04-01 02:56:00,
2013-03-31 23:01:00,43.3,41.4,29.84,WSW,248,1.0,3.0,93,0.00,,---,0.26,VWS V14.01,2013-04-01 03:01:00,
2013-03-31 23:06:00,43.1,41.2,29.84,SW,225,1.0,5.0,93,0.00,,---,0.26,VWS V14.01,2013-04-01 03:06:00,
2013-03-31 23:11:00,43.1,41.2,29.84,West,274,3.0,8.0,93,0.00,,---,0.26,VWS V14.01,2013-04-01 03:11:00,
2013-03-31 23:16:00,43.0,41.1,29.84,South,186,1.0,8.0,93,0.00,,---,0.26,VWS V14.01,2013-04-01 03:16:00,
2013-03-31 23:21:00,42.8,40.9,29.84,WSW,255,2.0,8.0,93,0.00,,---,0.26,VWS V14.01,2013-04-01 03:21:00,
2013-03-31 23:26:00,42.8,40.9,29.84,WSW,250,3.0,8.0,93,0.00,,---,0.26,VWS V14.01,2013-04-01 03:26:00,
2013-03-31 23:30:00,42.8,40.9,29.84,WNW,302,1.0,8.0,93,0.00,,---,0.26,VWS V14.01,2013-04-01 03:30:00,
2013-03-31 23:31:00,42.8,40.9,29.83,WNW,290,1.0,5.0,93,0.00,,---,0.26,VWS V14.01,2013-04-01 03:31:00,
2013-03-31 23:36:00,42.7,40.8,29.83,WNW,297,4.0,7.0,93,0.00,,---,0.26,VWS V14.01,2013-04-01 03:36:00,
2013-03-31 23:42:00,42.6,40.7,29.84,WSW,256,4.0,7.0,93,0.00,,---,0.26,VWS V14.01,2013-04-01 03:42:00,
2013-03-31 23:47:00,42.5,40.6,29.84,SSW,200,1.0,7.0,93,0.00,,---,0.26,VWS V14.01,2013-04-01 03:47:00,
2013-03-31 23:52:00,42.5,40.6,29.84,SSW,207,3.0,7.0,93,0.00,,---,0.26,VWS V14.01,2013-04-01 03:52:00,
2013-03-31 23:57:00,42.5,40.6,29.84,WSW,243,5.0,7.0,93,0.00,,---,0.26,VWS V14.01,2013-04-01 03:57:00,